| time (UTC) | temp F | wind direction | speed MPH | gust MPH | rain 1hr in | rain 24hr in | rain mn in | humidity % | barometer mb |
| 20260903050002 | 60 | 271 | 10.0 | 0.0 | 0.00 | 0.00 | 0.00 | 29 | 1006.8 |
| 20260903044559 | 60 | 269 | 10.0 | 0.0 | 0.00 | 0.00 | 0.00 | 26 | 1006.7 |
| 20260903043100 | 59 | 248 | 9.0 | 0.0 | 0.00 | 0.00 | 0.00 | 34 | 1006.5 |
| 20260903041600 | 59 | 213 | 8.0 | 0.0 | 0.00 | 0.00 | 0.00 | 40 | 1006.5 |
| 20260903040103 | 59 | 213 | 9.0 | 0.0 | 0.00 | 0.00 | 0.00 | 43 | 1006.5 |
| 20260903034558 | 59 | 261 | 11.0 | 0.0 | 0.00 | 0.00 | 0.00 | 43 | 1006.0 |
| 20260903033057 | 59 | 217 | 11.0 | 0.0 | 0.00 | 0.00 | 0.00 | 42 | 1005.9 |
| 20260903031557 | 59 | 223 | 9.0 | 0.0 | 0.00 | 0.00 | 0.00 | 40 | 1006.1 |
| 20260903030057 | 60 | 241 | 11.0 | 0.0 | 0.00 | 0.00 | 0.00 | 39 | 1006.1 |
| 20260903024557 | 60 | 217 | 9.0 | 0.0 | 0.00 | 0.00 | 0.00 | 39 | 1006.2 |
| 20260903023056 | 61 | 235 | 9.0 | 0.0 | 0.00 | 0.00 | 0.00 | 37 | 1006.2 |
| 20260903021556 | 61 | 245 | 9.0 | 0.0 | 0.00 | 0.00 | 0.00 | 36 | 1006.5 |
| 20260903020055 | 62 | 242 | 11.0 | 0.0 | 0.00 | 0.00 | 0.00 | 36 | 1006.3 |
| 20260903014555 | 63 | 242 | 11.0 | 0.0 | 0.00 | 0.00 | 0.00 | 31 | 1006.2 |
| 20260903013055 | 64 | 196 | 12.0 | 0.0 | 0.00 | 0.00 | 0.00 | 31 | 1006.2 |
| 20260903011605 | 65 | 190 | 10.0 | 0.0 | 0.00 | 0.00 | 0.00 | 30 | 1006.0 |
| 20260903010054 | 66 | 189 | 11.0 | 0.0 | 0.00 | 0.00 | 0.00 | 29 | 1006.1 |
| 20260903004553 | 66 | 232 | 11.0 | 0.0 | 0.00 | 0.00 | 0.00 | 26 | 1005.9 |
| 20260903003052 | 67 | 216 | 10.0 | 0.0 | 0.00 | 0.00 | 0.00 | 25 | 1006.0 |
| 20260903001552 | 68 | 226 | 10.0 | 0.0 | 0.00 | 0.00 | 0.00 | 26 | 1006.0 |
| 20260903000052 | 68 | 221 | 9.0 | 0.0 | 0.00 | 0.00 | 0.00 | 26 | 1006.0 |
| 20260902234552 | 67 | 248 | 11.0 | 0.0 | 0.00 | 0.00 | 0.00 | 27 | 1005.8 |
| 20260902233056 | 66 | 311 | 14.0 | 0.0 | 0.00 | 0.00 | 0.00 | 27 | 1005.8 |
| 20260902231559 | 66 | 250 | 14.0 | 0.0 | 0.00 | 0.00 | 0.00 | 27 | 1005.6 |
| 20260902230051 | 66 | 232 | 13.0 | 0.0 | 0.00 | 0.00 | 0.00 | 28 | 1005.6 |
| 20260902224557 | 68 | 220 | 14.0 | 0.0 | 0.00 | 0.00 | 0.00 | 27 | 1005.6 |
| 20260902223049 | 68 | 207 | 14.0 | 0.0 | 0.00 | 0.00 | 0.00 | 27 | 1005.7 |
| 20260902221550 | 69 | 234 | 12.0 | 0.0 | 0.00 | 0.00 | 0.00 | 25 | 1005.8 |
| 20260902220045 | 68 | 200 | 13.0 | 0.0 | 0.00 | 0.00 | 0.00 | 24 | 1006.0 |
| 20260902214543 | 68 | 192 | 11.0 | 0.0 | 0.00 | 0.00 | 0.00 | 28 | 1006.1 |
| 20260902213046 | 66 | 188 | 16.0 | 0.0 | 0.00 | 0.00 | 0.00 | 29 | 1006.3 |
| 20260902211545 | 65 | 221 | 11.0 | 0.0 | 0.00 | 0.00 | 0.00 | 31 | 1006.2 |
| 20260902210033 | 63 | 200 | 13.0 | 0.0 | 0.00 | 0.00 | 0.00 | 32 | 1006.3 |
| 20260902204532 | 63 | 211 | 13.0 | 0.0 | 0.00 | 0.00 | 0.00 | 32 | 1006.1 |
| 20260902203030 | 63 | 217 | 11.0 | 0.0 | 0.00 | 0.00 | 0.00 | 33 | 1006.3 |
| 20260902201536 | 62 | 236 | 14.0 | 0.0 | 0.00 | 0.00 | 0.00 | 32 | 1006.3 |
| 20260902200031 | 62 | 233 | 13.0 | 0.0 | 0.00 | 0.00 | 0.00 | 34 | 1006.5 |
| 20260902194526 | 62 | 243 | 11.0 | 0.0 | 0.00 | 0.00 | 0.00 | 35 | 1006.7 |
| 20260902193025 | 62 | 225 | 12.0 | 0.0 | 0.00 | 0.00 | 0.00 | 36 | 1006.7 |
| 20260902191534 | 61 | 224 | 12.0 | 0.0 | 0.00 | 0.00 | 0.00 | 37 | 1006.8 |
| 20260902190022 | 61 | 230 | 13.0 | 0.0 | 0.00 | 0.00 | 0.00 | 38 | 1006.7 |
| 20260902184520 | 60 | 238 | 13.0 | 0.0 | 0.00 | 0.00 | 0.00 | 37 | 1006.8 |
| 20260902183022 | 60 | 204 | 10.0 | 0.0 | 0.00 | 0.00 | 0.00 | 39 | 1006.9 |
| 20260902181515 | 59 | 213 | 9.0 | 0.0 | 0.00 | 0.00 | 0.00 | 42 | 1006.7 |
| 20260902180014 | 58 | 200 | 9.0 | 0.0 | 0.00 | 0.00 | 0.00 | 43 | 1006.7 |
| 20260902174512 | 58 | 225 | 8.0 | 0.0 | 0.00 | 0.00 | 0.00 | 43 | 1006.9 |
| 20260902173009 | 58 | 247 | 7.0 | 0.0 | 0.00 | 0.00 | 0.00 | 43 | 1006.7 |
| 20260902171509 | 58 | 208 | 8.0 | 0.0 | 0.00 | 0.00 | 0.00 | 44 | 1006.8 |
| 20260902170006 | 57 | 235 | 6.0 | 0.0 | 0.00 | 0.00 | 0.00 | 44 | 1006.7 |
| 20260902164507 | 57 | 258 | 6.0 | 0.0 | 0.00 | 0.00 | 0.00 | 44 | 1006.6 |
| 20260902163004 | 57 | 221 | 6.0 | 0.0 | 0.00 | 0.00 | 0.00 | 43 | 1006.3 |
| 20260902161506 | 56 | 213 | 4.0 | 0.0 | 0.00 | 0.00 | 0.00 | 43 | 1006.2 |
| 20260902160006 | 56 | 172 | 5.0 | 0.0 | 0.00 | 0.00 | 0.00 | 44 | 1006.0 |
| 20260902154506 | 55 | 240 | 4.0 | 0.0 | 0.00 | 0.00 | 0.00 | 45 | 1006.2 |
| 20260902153003 | 55 | 219 | 5.0 | 0.0 | 0.00 | 0.00 | 0.00 | 45 | 1006.2 |
| 20260902151502 | 55 | 234 | 4.0 | 0.0 | 0.00 | 0.00 | 0.00 | 46 | 1006.4 |
| 20260902150001 | 55 | 148 | 4.0 | 0.0 | 0.00 | 0.00 | 0.00 | 46 | 1006.2 |
| 20260902144600 | 55 | 169 | 6.0 | 0.0 | 0.00 | 0.00 | 0.00 | 45 | 1006.2 |
| 20260902143106 | 55 | 202 | 5.0 | 0.0 | 0.00 | 0.00 | 0.00 | 46 | 1006.1 |
| 20260902141557 | 54 | 190 | 4.0 | 0.0 | 0.00 | 0.00 | 0.00 | 47 | 1005.7 |
| 20260902140056 | 51 | 111 | 4.0 | 0.0 | 0.00 | 0.00 | 0.00 | 53 | 1005.5 |
| 20260902134553 | 48 | 75 | 2.0 | 0.0 | 0.00 | 0.00 | 0.00 | 53 | 1005.4 |
| 20260902133052 | 48 | 76 | 2.0 | 0.0 | 0.00 | 0.00 | 0.00 | 51 | 1005.2 |
| 20260902131551 | 48 | 71 | 1.0 | 0.0 | 0.00 | 0.00 | 0.00 | 51 | 1005.1 |
| 20260902130056 | 48 | 71 | 2.0 | 0.0 | 0.00 | 0.00 | 0.00 | 50 | 1004.9 |
| 20260902124547 | 49 | 71 | 1.0 | 0.0 | 0.00 | 0.00 | 0.00 | 49 | 1004.8 |
| 20260902123054 | 49 | 71 | 2.0 | 0.0 | 0.00 | 0.00 | 0.00 | 48 | 1004.6 |
| 20260902121544 | 49 | 65 | 2.0 | 0.0 | 0.00 | 0.00 | 0.00 | 48 | 1004.6 |
| 20260902120044 | 49 | 65 | 0.0 | 0.0 | 0.00 | 0.00 | 0.00 | 47 | 1004.6 |
| 20260902114543 | 49 | 67 | 2.0 | 0.0 | 0.00 | 0.00 | 0.00 | 48 | 1004.6 |
| 20260902113045 | 49 | 67 | 1.0 | 0.0 | 0.00 | 0.00 | 0.00 | 45 | 1004.6 |
| 20260902111536 | 51 | 67 | 1.0 | 0.0 | 0.00 | 0.00 | 0.00 | 43 | 1004.6 |
| 20260902110039 | 51 | 67 | 2.0 | 0.0 | 0.00 | 0.00 | 0.00 | 42 | 1004.7 |
| 20260902104531 | 52 | 136 | 2.0 | 0.0 | 0.00 | 0.00 | 0.00 | 41 | 1004.7 |
| 20260902103031 | 53 | 257 | 4.0 | 0.0 | 0.00 | 0.00 | 0.00 | 41 | 1004.3 |
| 20260902101528 | 54 | 309 | 3.0 | 0.0 | 0.00 | 0.00 | 0.00 | 38 | 1004.5 |
| 20260902100026 | 55 | 214 | 6.0 | 0.0 | 0.00 | 0.00 | 0.00 | 38 | 1004.5 |
| 20260902094522 | 56 | 205 | 7.0 | 0.0 | 0.00 | 0.00 | 0.00 | 37 | 1004.1 |
| 20260902093021 | 55 | 184 | 8.0 | 0.0 | 0.00 | 0.00 | 0.00 | 38 | 1004.2 |
| 20260902091521 | 55 | 169 | 8.0 | 0.0 | 0.00 | 0.00 | 0.00 | 38 | 1004.6 |
| 20260902090021 | 55 | 161 | 9.0 | 0.0 | 0.00 | 0.00 | 0.00 | 37 | 1004.5 |
| 20260902084523 | 55 | 171 | 8.0 | 0.0 | 0.00 | 0.00 | 0.00 | 33 | 1004.4 |
| 20260902083016 | 56 | 198 | 9.0 | 0.0 | 0.00 | 0.00 | 0.00 | 31 | 1004.5 |
| 20260902081517 | 55 | 229 | 9.0 | 0.0 | 0.00 | 0.00 | 0.00 | 30 | 1004.5 |
| 20260902080013 | 55 | 254 | 4.0 | 0.0 | 0.00 | 0.00 | 0.00 | 31 | 1004.6 |
| 20260902074508 | 56 | 229 | 6.0 | 0.0 | 0.00 | 0.00 | 0.00 | 30 | 1004.2 |
| 20260902073006 | 57 | 235 | 6.0 | 0.0 | 0.00 | 0.00 | 0.00 | 33 | 1004.1 |
| 20260902071504 | 57 | 225 | 7.0 | 0.0 | 0.00 | 0.00 | 0.00 | 31 | 1004.0 |
| 20260902070001 | 57 | 213 | 9.0 | 0.0 | 0.00 | 0.00 | 0.00 | 31 | 1003.5 |
| 20260902064609 | 57 | 232 | 7.0 | 0.0 | 0.00 | 0.00 | 0.00 | 32 | 1003.5 |
| 20260902063102 | 57 | 217 | 7.0 | 0.0 | 0.00 | 0.00 | 0.00 | 32 | 1003.7 |
| 20260902060108 | 58 | 213 | 8.0 | 0.0 | 0.00 | 0.00 | 0.00 | 33 | 1003.4 |
| 20260902054558 | 58 | 258 | 8.0 | 0.0 | 0.00 | 0.00 | 0.00 | 33 | 1003.4 |
| 20260902053106 | 58 | 236 | 9.0 | 0.0 | 0.00 | 0.00 | 0.00 | 33 | 1003.4 |
| 20260902051559 | 59 | 240 | 11.0 | 0.0 | 0.00 | 0.00 | 0.00 | 33 | 1003.4 |